Tracking 28915 objects as of 30-May-2024
HD Live streaming from Space Station
objects crossing your sky now

OBJECT K

Track OBJECT K now!
10-day predictions
OBJECT K is classified as:


NORAD ID: 59060
Int'l Code: 2024-039K
Perigee: 481.0 km
Apogee: 500.8 km
Inclination: 97.4 °
Period: 94.3 minutes
Semi major axis: 6861 km
RCS: Unknown
Launch date: February 29, 2024
Source: (TBD)
Launch site: VOSTOCHNY COSMODROME (VOSTO)

Uplink (MHz):
Downlink (MHz): 401.160
Beacon (MHz):
Mode: 2k4 GMSK_USP
Call sign:
Status: Unknown


Note: This is a ROCKET BODY
Your satellite tracking list
Your tracking list is empty




NASA's NSSDC Master Catalog

Two Line Element Set (TLE):
1 59060U 24039K   24151.19046115  .00018189  00000-0  67906-3 0  9996
2 59060  97.3911 113.3952 0014477 282.3821  77.5798 15.27343375 13855
Source of the keplerian elements: AFSPC